,,Stat6,,Stat2,,Stat8,,Stat9,,Stat10,,Wind1,,Wind1,
time,status,PA1M_AVG,status,PR1M_SUM,status,RH1M_AVG,status,SR1M_AVG,status,TA1M_AVG,status,W1dAve1m,status,W1sAve1m,
2006-11-29, 07:33:00,VALID,917.821,VALID,0,VALID,100,VALID,137.28,VALID,19.698,VALID,48,VALID,1.59668,
2006-11-29, 07:34:00,VALID,917.836,VALID,0,VALID,100,VALID,134.845,VALID,19.7238,VALID,44,VALID,1.3125,
2006-11-29, 07:35:00,VALID,917.847,VALID,0,VALID,100,VALID,132.892,VALID,19.7499,VALID,42,VALID,1.32589,
2006-11-29, 07:36:00,VALID,917.854,VALID,0,VALID,100,VALID,131.856,VALID,19.7469,VALID,45,VALID,1.31306,
2006-11-29, 07:37:00,VALID,917.852,VALID,0,VALID,100,VALID,131.822,VALID,19.7467,VALID,49,VALID,1.65755,
2006-11-29, 07:38:00,VALID,917.86,VALID,0,VALID,100,VALID,132.45,VALID,19.7144,VALID,44,VALID,1.60361,
2006-11-29, 07:39:00,VALID,917.864,VALID,0,VALID,100,VALID,133.622,VALID,19.7271,VALID,51,VALID,1.35156,
2006-11-29, 07:40:00,VALID,917.865,VALID,0,VALID,100,VALID,135.15,VALID,19.7432,VALID,34,VALID,1.43397,
2006-11-29, 07:41:00,VALID,917.876,VALID,0,VALID,100,VALID,136.407,VALID,19.8018,VALID,37,VALID,1.30522,
2006-11-29, 07:42:00,VALID,917.867,VALID,0,VALID,100,VALID,137.154,VALID,19.8078,VALID,38,VALID,1.56764,
2006-11-29, 07:43:00,VALID,917.873,VALID,0,VALID,100,VALID,137.256,VALID,19.8403,VALID,36,VALID,1.40694,
2006-11-29, 07:44:00,VALID,917.881,VALID,0,VALID,100,VALID,136.832,VALID,19.8626,VALID,37,VALID,1.33232,
2006-11-29, 07:45:00,VALID,917.888,VALID,0,VALID,100,VALID,136.441,VALID,19.8919,VALID,34,VALID,1.55339,
2006-11-29, 07:46:00,VALID,917.902,VALID,0,VALID,100,VALID,137.12,VALID,19.8693,VALID,28,VALID,1.67951,
2006-11-29, 07:47:00,VALID,917.907,VALID,0,VALID,100,VALID,139.447,VALID,19.9242,VALID,16,VALID,0.9758,
2006-11-29, 07:48:00,VALID,917.905,VALID,0,VALID,100,VALID,143.573,VALID,19.9399,VALID,48,VALID,1.46239,
2006-11-29, 07:49:00,VALID,917.908,VALID,0,VALID,100,VALID,148.548,VALID,19.9789,VALID,43,VALID,1.48398,
2006-11-29, 07:50:00,VALID,917.896,VALID,0,VALID,100,VALID,152.573,VALID,20.0047,VALID,38,VALID,1.27159,
2006-11-29, 07:51:00,VALID,917.917,VALID,0,VALID,100,VALID,155.188,VALID,20.0496,VALID,43,VALID,1.09595,
2006-11-29, 07:52:00,VALID,917.903,VALID,0,VALID,100,VALID,157.192,VALID,20.0494,VALID,36,VALID,1.86663,
2006-11-29, 07:53:00,VALID,917.907,VALID,0,VALID,100,VALID,159.008,VALID,20.0566,VALID,36,VALID,1.32755,
2006-11-29, 07:54:00,VALID,917.896,VALID,0,VALID,100,VALID,160.401,VALID,20.0563,VALID,30,VALID,1.53161,
2006-11-29, 07:55:00,VALID,917.911,VALID,0,VALID,100,VALID,160.197,VALID,20.0792,VALID,36,VALID,1.47275,
2006-11-29, 07:56:00,VALID,917.92,VALID,0,VALID,100,VALID,158.227,VALID,20.108,VALID,37,VALID,1.48047,
2006-11-29, 07:57:00,VALID,917.93,VALID,0,VALID,100,VALID,155.68,VALID,20.1241,VALID,46,VALID,1.49721,
2006-11-29, 07:58:00,VALID,917.953,VALID,0,VALID,100,VALID,154.169,VALID,20.1147,VALID,39,VALID,1.9395,
2006-11-29, 07:59:00,VALID,917.969,VALID,0,VALID,100,VALID,154.56,VALID,20.1562,VALID,30,VALID,1.57403,
2006-11-29, 08:00:00,VALID,917.986,VALID,0,VALID,100,VALID,157.226,VALID,20.1753,VALID,39,VALID,1.42188,
2006-11-29, 08:01:00,VALID,918.006,VALID,0,VALID,100,VALID,162.625,VALID,20.211,VALID,37,VALID,1.61026,
2006-11-29, 08:02:00,VALID,918.027,VALID,0,VALID,100,VALID,170.386,VALID,20.2302,VALID,38,VALID,1.91292,
2006-11-29, 08:03:00,VALID,918.016,VALID,0,VALID,100,VALID,179.538,VALID,20.2302,VALID,37,VALID,1.36886,
2006-11-29, 08:04:00,VALID,918.014,VALID,0,VALID,100,VALID,186.212,VALID,20.2721,VALID,36,VALID,1.86585,
2006-11-29, 08:05:00,VALID,918.022,VALID,0,VALID,100,VALID,190.27,VALID,20.3402,VALID,35,VALID,1.03482,
2006-11-29, 08:06:00,VALID,918.029,VALID,0,VALID,100,VALID,191.442,VALID,20.3692,VALID,39,VALID,1.12682,
2006-11-29, 08:07:00,VALID,918.047,VALID,0,VALID,100,VALID,189.642,VALID,20.4338,VALID,44,VALID,0.69798,
2006-11-29, 08:08:00,VALID,918.056,VALID,0,VALID,100,VALID,185.023,VALID,20.4685,VALID,58,VALID,0.981213,
2006-11-29, 08:09:00,VALID,918.056,VALID,0,VALID,99.984,VALID,179.25,VALID,20.4822,VALID,49,VALID,1.07083,
2006-11-29, 08:10:00,VALID,918.077,VALID,0,VALID,99.7815,VALID,174.087,VALID,20.4944,VALID,27,VALID,1.38815,
2006-11-29, 08:11:00,VALID,918.085,VALID,0,VALID,99.8553,VALID,170.335,VALID,20.5466,VALID,25,VALID,1.15957,
2006-11-29, 08:12:00,VALID,918.1,VALID,0,VALID,99.882,VALID,167.533,VALID,20.5877,VALID,22,VALID,1.2609,
2006-11-29, 08:13:00,VALID,918.115,VALID,0,VALID,99.7472,VALID,165.122,VALID,20.6203,VALID,54,VALID,1.09375,
2006-11-29, 08:14:00,VALID,918.117,VALID,0,VALID,99.7319,VALID,163.322,VALID,20.6523,VALID,42,VALID,1.23977,
2006-11-29, 08:15:00,VALID,918.122,VALID,0,VALID,99.4865,VALID,162.371,VALID,20.6658,VALID,51,VALID,1.04469,
2006-11-29, 08:16:00,VALID,918.132,VALID,0,VALID,99.5412,VALID,162.778,VALID,20.6784,VALID,20,VALID,0.861506,
2006-11-29, 08:17:00,VALID,918.125,VALID,0,VALID,99.1394,VALID,164.103,VALID,20.6754,VALID,20,VALID,1.45957,
2006-11-29, 08:18:00,VALID,918.105,VALID,0,VALID,99.3568,VALID,165.835,VALID,20.6794,VALID,28,VALID,1.08663,
2006-11-29, 08:19:00,VALID,918.099,VALID,0,VALID,99.1966,VALID,168.195,VALID,20.7155,VALID,346,VALID,1.09231,
2006-11-29, 08:20:00,VALID,918.081,VALID,0,VALID,99.1839,VALID,170.912,VALID,20.7639,VALID,358,VALID,1.2138,
2006-11-29, 08:21:00,VALID,918.078,VALID,0,VALID,98.1335,VALID,174.003,VALID,20.7443,VALID,360,VALID,1.84003,
2006-11-29, 08:22:00,VALID,918.072,VALID,0,VALID,98.0979,VALID,177.246,VALID,20.7443,VALID,356,VALID,1.13789,
2006-11-29, 08:23:00,VALID,918.073,VALID,0,VALID,97.9136,VALID,180.455,VALID,20.7927,VALID,355,VALID,1.67242,
2006-11-29, 08:24:00,VALID,918.081,VALID,0,VALID,98.0839,VALID,183.834,VALID,20.8374,VALID,346,VALID,1.238,
2006-11-29, 08:25:00,VALID,918.092,VALID,0,VALID,97.1468,VALID,186.755,VALID,20.8541,VALID,358,VALID,1.6193,
2006-11-29, 08:26:00,VALID,918.095,VALID,0,VALID,97.3477,VALID,188.861,VALID,20.8826,VALID,350,VALID,1.01472,
2006-11-29, 08:27:00,VALID,918.11,VALID,0,VALID,97.1366,VALID,189.948,VALID,20.9469,VALID,8,VALID,1.23723,
2006-11-29, 08:28:00,VALID,918.113,VALID,0,VALID,96.7971,VALID,190.898,VALID,20.9862,VALID,38,VALID,2.10283,
2006-11-29, 08:29:00,VALID,918.127,VALID,0,VALID,96.4525,VALID,192.885,VALID,20.9929,VALID,30,VALID,1.88496,
2006-11-29, 08:30:00,VALID,918.138,VALID,0,VALID,96.3355,VALID,195.195,VALID,21.0282,VALID,28,VALID,1.62039,
2006-11-29, 08:31:00,VALID,918.158,VALID,0,VALID,97.0158,VALID,196.774,VALID,21.0764,VALID,23,VALID,1.63374,
2006-11-29, 08:32:00,VALID,918.162,VALID,0,VALID,96.4843,VALID,197.589,VALID,21.1124,VALID,33,VALID,1.61086,
2006-11-29, 08:33:00,VALID,918.168,VALID,0,VALID,96.3202,VALID,198.591,VALID,21.1493,VALID,28,VALID,1.44515,
2006-11-29, 08:34:00,VALID,918.187,VALID,0,VALID,96.7284,VALID,199.864,VALID,21.1687,VALID,37,VALID,1.41406,
2006-11-29, 08:35:00,VALID,918.198,VALID,0,VALID,96.8289,VALID,201.63,VALID,21.2074,VALID,46,VALID,1.02716,
2006-11-29, 08:36:00,VALID,918.214,VALID,0,VALID,96.8925,VALID,203.396,VALID,21.2451,VALID,41,VALID,0.953711,
2006-11-29, 08:37:00,VALID,918.226,VALID,0,VALID,95.9655,VALID,204.721,VALID,21.226,VALID,39,VALID,1.68643,
2006-11-29, 08:38:00,VALID,918.232,VALID,0,VALID,95.893,VALID,205.434,VALID,21.1999,VALID,41,VALID,1.39621,
2006-11-29, 08:39:00,VALID,918.215,VALID,0,VALID,95.8688,VALID,206.198,VALID,21.2354,VALID,41,VALID,1.37252,
2006-11-29, 08:40:00,VALID,918.216,VALID,0,VALID,95.8777,VALID,207.642,VALID,21.2812,VALID,39,VALID,1.44754,
2006-11-29, 08:41:00,VALID,918.229,VALID,0,VALID,95.0766,VALID,210.613,VALID,21.2847,VALID,36,VALID,1.68732,
2006-11-29, 08:42:00,VALID,918.235,VALID,0,VALID,94.793,VALID,214.994,VALID,21.2935,VALID,36,VALID,1.99948,
2006-11-29, 08:43:00,VALID,918.244,VALID,0,VALID,94.9189,VALID,220.207,VALID,21.3358,VALID,48,VALID,1.79859,
2006-11-29, 08:44:00,VALID,918.244,VALID,0,VALID,94.6595,VALID,227.051,VALID,21.3907,VALID,32,VALID,1.96023,
2006-11-29, 08:45:00,VALID,918.269,VALID,0,VALID,94.573,VALID,234.556,VALID,21.4297,VALID,25,VALID,1.56726,
2006-11-29, 08:46:00,VALID,918.262,VALID,0,VALID,94.9405,VALID,242.333,VALID,21.4676,VALID,36,VALID,1.17588,
2006-11-29, 08:47:00,VALID,918.274,VALID,0,VALID,94.3187,VALID,250.263,VALID,21.5129,VALID,36,VALID,2.25781,
2006-11-29, 08:48:00,VALID,918.273,VALID,0,VALID,93.3421,VALID,257.786,VALID,21.4986,VALID,44,VALID,1.58648,
2006-11-29, 08:49:00,VALID,918.268,VALID,0,VALID,93.4769,VALID,265.325,VALID,21.5371,VALID,42,VALID,2.14698,
2006-11-29, 08:50:00,VALID,918.272,VALID,0,VALID,93.51,VALID,274.733,VALID,21.5726,VALID,32,VALID,1.81231,
2006-11-29, 08:51:00,VALID,918.274,VALID,0,VALID,93.4769,VALID,289.285,VALID,21.5888,VALID,37,VALID,1.519,
2006-11-29, 08:52:00,VALID,918.277,VALID,0,VALID,93.9907,VALID,307.217,VALID,21.6558,VALID,53,VALID,1.30117,
2006-11-29, 08:53:00,VALID,918.274,VALID,0,VALID,93.5303,VALID,320.666,VALID,21.7306,VALID,47,VALID,1.44074,
2006-11-29, 08:54:00,VALID,918.283,VALID,0,VALID,93.51,VALID,333.436,VALID,21.8016,VALID,51,VALID,1.30069,
2006-11-29, 08:55:00,VALID,918.277,VALID,0,VALID,93.1311,VALID,346.867,VALID,21.9044,VALID,44,VALID,1.56341,
2006-11-29, 08:56:00,VALID,918.28,VALID,0,VALID,92.3007,VALID,361.963,VALID,21.9174,VALID,35,VALID,1.46312,
2006-11-29, 08:57:00,VALID,918.273,VALID,0,VALID,92.5359,VALID,370.505,VALID,22.0078,VALID,33,VALID,1.34629,
2006-11-29, 08:58:00,VALID,918.27,VALID,0,VALID,92.8233,VALID,372.712,VALID,22.0953,VALID,49,VALID,0.909091,
2006-11-29, 08:59:00,VALID,918.262,VALID,0,VALID,91.1397,VALID,381.389,VALID,22.1402,VALID,36,VALID,2.1339,
2006-11-29, 09:00:00,VALID,918.267,VALID,0,VALID,91.4602,VALID,382.782,VALID,22.1631,VALID,56,VALID,1.66824,
2006-11-29, 09:01:00,VALID,918.242,VALID,0,VALID,91.216,VALID,363.39,VALID,22.3663,VALID,64,VALID,1.64621,
2006-11-29, 09:02:00,VALID,918.231,VALID,0,VALID,90.0805,VALID,334.624,VALID,22.5434,VALID,66,VALID,1.59165,
2006-11-29, 09:03:00,VALID,918.241,VALID,0,VALID,88.4821,VALID,327.577,VALID,22.5916,VALID,36,VALID,2.2816,
2006-11-29, 09:04:00,VALID,918.228,VALID,0,VALID,89.3353,VALID,300.51,VALID,22.6172,VALID,60,VALID,1.90171,
2006-11-29, 09:05:00,VALID,918.226,VALID,0,VALID,89.7231,VALID,301.919,VALID,22.769,VALID,28,VALID,1.62589,
2006-11-29, 09:06:00,VALID,918.22,VALID,0,VALID,89.6469,VALID,295.687,VALID,22.8724,VALID,23,VALID,1.22603,
2006-11-29, 09:07:00,VALID,918.228,VALID,0,VALID,90.0639,VALID,289.116,VALID,23.0471,VALID,36,VALID,1.50114,
2006-11-29, 09:08:00,VALID,918.222,VALID,0,VALID,88.7771,VALID,282.884,VALID,23.2277,VALID,46,VALID,1.60118,
2006-11-29, 09:09:00,VALID,918.206,VALID,0,VALID,86.3089,VALID,287.944,VALID,23.3012,VALID,23,VALID,2.00098,
2006-11-29, 09:10:00,VALID,918.221,VALID,0,VALID,88.1387,VALID,304.908,VALID,23.3849,VALID,12,VALID,1.9939,
2006-11-29, 09:11:00,VALID,918.229,VALID,0,VALID,88.037,VALID,335.388,VALID,23.443,VALID,22,VALID,1.81944,
2006-11-29, 09:12:00,VALID,918.247,VALID,0,VALID,85.8155,VALID,334.658,VALID,23.4689,VALID,32,VALID,2.21934,
2006-11-29, 09:13:00,VALID,918.24,VALID,0,VALID,86.0673,VALID,303.702,VALID,23.4204,VALID,348,VALID,1.12483,
2006-11-29, 09:14:00,VALID,918.251,VALID,0,VALID,87.466,VALID,275.514,VALID,23.3581,VALID,23,VALID,1.67839,
2006-11-29, 09:15:00,VALID,918.252,VALID,0,VALID,87.5042,VALID,262.999,VALID,23.2545,VALID,50,VALID,1.5505,
2006-11-29, 09:16:00,VALID,918.26,VALID,0,VALID,88.4655,VALID,269.622,VALID,23.1708,VALID,65,VALID,0.86101,
2006-11-29, 09:17:00,VALID,918.269,VALID,0,VALID,87.976,VALID,291.544,VALID,23.174,VALID,54,VALID,0.847842,
2006-11-29, 09:18:00,VALID,918.276,VALID,0,VALID,87.1939,VALID,333.639,VALID,23.1443,VALID,9,VALID,0.984003,
2006-11-29, 09:19:00,VALID,918.267,VALID,0,VALID,88.1438,VALID,317.066,VALID,23.1863,VALID,11,VALID,0.86814,
2006-11-29, 09:20:00,VALID,918.265,VALID,0,VALID,87.2728,VALID,301.546,VALID,23.144,VALID,28,VALID,0.962305,
2006-11-29, 09:21:00,VALID,918.29,VALID,0,VALID,88.407,VALID,319.783,VALID,23.1537,VALID,66,VALID,0.552689,
2006-11-29, 09:22:00,VALID,918.302,VALID,0,VALID,87.6199,VALID,377.688,VALID,23.2248,VALID,61,VALID,0.457775,
2006-11-29, 09:23:00,VALID,918.324,VALID,0,VALID,87.3287,VALID,368.909,VALID,23.3393,VALID,72,VALID,0.727108,
2006-11-29, 09:24:00,VALID,918.335,VALID,0,VALID,87.1431,VALID,336.798,VALID,23.4841,VALID,59,VALID,0.810177,
2006-11-29, 09:25:00,VALID,918.355,VALID,0,VALID,87.2499,VALID,329.038,VALID,23.5784,VALID,57,VALID,0.593056,
2006-11-29, 09:26:00,VALID,918.365,VALID,0,VALID,84.8148,VALID,324.792,VALID,23.5752,VALID,354,VALID,1.003,
2006-11-29, 09:27:00,VALID,918.378,VALID,0,VALID,86.6421,VALID,327.289,VALID,23.4979,VALID,16,VALID,1.27065,
2006-11-29, 09:28:00,VALID,918.384,VALID,0,VALID,86.2898,VALID,333.724,VALID,23.4266,VALID,52,VALID,0.98056,
2006-11-29, 09:29:00,VALID,918.387,VALID,0,VALID,85.977,VALID,339.702,VALID,23.3778,VALID,26,VALID,0.831101,
2006-11-29, 09:30:00,VALID,918.371,VALID,0,VALID,87.2753,VALID,342.079,VALID,23.3878,VALID,42,VALID,0.386265,
2006-11-29, 09:31:00,VALID,918.368,VALID,0,VALID,86.3979,VALID,342.86,VALID,23.4483,VALID,31,VALID,1.00657,
2006-11-29, 09:32:00,VALID,918.361,VALID,0,VALID,85.9668,VALID,339.685,VALID,23.4686,VALID,72,VALID,0.725291,
2006-11-29, 09:33:00,VALID,918.355,VALID,0,VALID,85.8397,VALID,333.809,VALID,23.5414,VALID,64,VALID,1.08117,
2006-11-29, 09:34:00,VALID,918.352,VALID,0,VALID,85.2598,VALID,330.498,VALID,23.574,VALID,60,VALID,0.259811,
2006-11-29, 09:35:00,VALID,918.346,VALID,0,VALID,85.8092,VALID,335.337,VALID,23.6712,VALID,27,VALID,0.815625,
2006-11-29, 09:36:00,VALID,918.356,VALID,0,VALID,84.9979,VALID,341.23,VALID,23.6742,VALID,22,VALID,0.918241,
2006-11-29, 09:37:00,VALID,918.353,VALID,0,VALID,85.8333,VALID,340.754,VALID,23.6677,VALID,30,VALID,1.30646,
2006-11-29, 09:38:00,VALID,918.353,VALID,0,VALID,86.1754,VALID,333.673,VALID,23.6609,VALID,50,VALID,1.28249,
2006-11-29, 09:39:00,VALID,918.354,VALID,0,VALID,85.0462,VALID,329.921,VALID,23.648,VALID,60,VALID,0.982422,
2006-11-29, 09:40:00,VALID,918.358,VALID,0,VALID,85.5612,VALID,330.532,VALID,23.6674,VALID,70,VALID,1.12305,
2006-11-29, 09:41:00,VALID,918.369,VALID,0,VALID,86.08,VALID,332.366,VALID,23.7323,VALID,62,VALID,0.976563,
2006-11-29, 09:42:00,VALID,918.379,VALID,0,VALID,85.9643,VALID,331.109,VALID,23.8105,VALID,66,VALID,0.609184,
2006-11-29, 09:43:00,VALID,918.367,VALID,0,VALID,86.2631,VALID,326.27,VALID,23.8842,VALID,57,VALID,0.670703,
2006-11-29, 09:44:00,VALID,918.368,VALID,0,VALID,84.4307,VALID,321.719,VALID,23.9162,VALID,70,VALID,1.28979,
2006-11-29, 09:45:00,VALID,918.367,VALID,0,VALID,84.0111,VALID,320.819,VALID,23.9453,VALID,38,VALID,0.851017,
2006-11-29, 09:46:00,VALID,918.378,VALID,0,VALID,83.9526,VALID,317.694,VALID,23.9109,VALID,63,VALID,1.06269,
2006-11-29, 09:47:00,VALID,918.379,VALID,0,VALID,82.9582,VALID,312.838,VALID,23.8624,VALID,56,VALID,0.957485,
2006-11-29, 09:48:00,VALID,918.373,VALID,0,VALID,84.1268,VALID,307.319,VALID,23.8704,VALID,42,VALID,0.826882,
2006-11-29, 09:49:00,VALID,918.381,VALID,0,VALID,84.7029,VALID,301.325,VALID,23.8839,VALID,34,VALID,0.905273,
2006-11-29, 09:50:00,VALID,918.375,VALID,0,VALID,84.7842,VALID,296.349,VALID,23.861,VALID,27,VALID,0.93423,
2006-11-29, 09:51:00,VALID,918.364,VALID,0,VALID,85.593,VALID,291.255,VALID,23.8539,VALID,50,VALID,1.07559,
2006-11-29, 09:52:00,VALID,918.377,VALID,0,VALID,85.3501,VALID,285.363,VALID,23.8439,VALID,16,VALID,1.14299,
2006-11-29, 09:53:00,VALID,918.374,VALID,0,VALID,85.4328,VALID,278.689,VALID,23.8151,VALID,25,VALID,1.24963,
2006-11-29, 09:54:00,VALID,918.364,VALID,0,VALID,85.6883,VALID,271.456,VALID,23.7379,VALID,19,VALID,0.958212,
2006-11-29, 09:55:00,VALID,918.36,VALID,0,VALID,86.0164,VALID,267.244,VALID,23.767,VALID,9,VALID,0.345567,
2006-11-29, 09:56:00,VALID,918.356,VALID,0,VALID,85.6413,VALID,268.008,VALID,23.8222,VALID,54,VALID,0.718932,
2006-11-29, 09:57:00,VALID,918.335,VALID,0,VALID,84.7995,VALID,272.61,VALID,23.8665,VALID,55,VALID,1.27307,
2006-11-29, 09:58:00,VALID,918.335,VALID,0,VALID,84.3112,VALID,279.946,VALID,23.9062,VALID,62,VALID,1.34528,
2006-11-29, 09:59:00,VALID,918.318,VALID,0,VALID,84.1548,VALID,287.774,VALID,23.8933,VALID,23,VALID,0.703125,
2006-11-29, 10:00:00,VALID,918.317,VALID,0,VALID,85.0754,VALID,293.972,VALID,23.9159,VALID,24,VALID,0.588728,
2006-11-29, 10:01:00,VALID,918.313,VALID,0,VALID,85.345,VALID,299.898,VALID,23.9667,VALID,30,VALID,0.591463,
2006-11-29, 10:02:00,VALID,918.314,VALID,0,VALID,85.0411,VALID,304.11,VALID,24.0281,VALID,53,VALID,0.768601,
2006-11-29, 10:03:00,VALID,918.307,VALID,0,VALID,82.7026,VALID,307.812,VALID,24.0119,VALID,39,VALID,1.52915,
2006-11-29, 10:04:00,VALID,918.294,VALID,0,VALID,81.6917,VALID,308.83,VALID,23.9094,VALID,3,VALID,1.17083,
2006-11-29, 10:05:00,VALID,918.297,VALID,0,VALID,83.6639,VALID,305.315,VALID,23.8759,VALID,339,VALID,0.691319,
2006-11-29, 10:06:00,VALID,918.307,VALID,0,VALID,84.1739,VALID,299.881,VALID,23.9773,VALID,25,VALID,0.79154,
2006-11-29, 10:07:00,VALID,918.302,VALID,0,VALID,82.4686,VALID,292.834,VALID,23.9638,VALID,40,VALID,1.00472,
2006-11-29, 10:08:00,VALID,918.295,VALID,0,VALID,83.5253,VALID,284.446,VALID,23.9476,VALID,43,VALID,0.426398,
2006-11-29, 10:09:00,VALID,918.296,VALID,0,VALID,83.8661,VALID,277.093,VALID,24.0052,VALID,27,VALID,0.716388,
2006-11-29, 10:10:00,VALID,918.303,VALID,0,VALID,84.0009,VALID,271.099,VALID,24.0025,VALID,21,VALID,1.91183,
2006-11-29, 10:11:00,VALID,918.296,VALID,0,VALID,83.1413,VALID,267.193,VALID,23.8562,VALID,7,VALID,2.33285,
2006-11-29, 10:12:00,VALID,918.277,VALID,0,VALID,83.4948,VALID,265.054,VALID,23.6953,VALID,332,VALID,1.84807,
2006-11-29, 10:13:00,VALID,918.294,VALID,0,VALID,83.9246,VALID,265.292,VALID,23.6145,VALID,26,VALID,2.04464,
2006-11-29, 10:14:00,VALID,918.281,VALID,0,VALID,84.165,VALID,268.178,VALID,23.5596,VALID,6,VALID,1.2397,
2006-11-29, 10:15:00,VALID,918.254,VALID,0,VALID,83.1566,VALID,273.527,VALID,23.5276,VALID,342,VALID,1.74836,
2006-11-29, 10:16:00,VALID,918.266,VALID,0,VALID,84.2692,VALID,278.825,VALID,23.4947,VALID,20,VALID,1.40272,
2006-11-29, 10:17:00,VALID,918.258,VALID,0,VALID,84.0098,VALID,283.546,VALID,23.5111,VALID,360,VALID,1.22177,
2006-11-29, 10:18:00,VALID,918.264,VALID,0,VALID,84.6367,VALID,290.033,VALID,23.5584,VALID,329,VALID,1.0744,
2006-11-29, 10:19:00,VALID,918.259,VALID,0,VALID,83.0841,VALID,296.757,VALID,23.5458,VALID,322,VALID,1.35528,
2006-11-29, 10:20:00,VALID,918.258,VALID,0,VALID,84.2006,VALID,301.359,VALID,23.5584,VALID,342,VALID,0.703711,
2006-11-29, 10:21:00,VALID,918.252,VALID,0,VALID,84.9076,VALID,301.97,VALID,23.6292,VALID,55,VALID,0.712305,
2006-11-29, 10:22:00,VALID,918.26,VALID,0,VALID,84.1637,VALID,300.238,VALID,23.7352,VALID,42,VALID,0.638368,
2006-11-29, 10:23:00,VALID,918.279,VALID,0,VALID,82.9073,VALID,298.387,VALID,23.8198,VALID,32,VALID,0.793146,
2006-11-29, 10:24:00,VALID,918.286,VALID,0,VALID,83.4707,VALID,299.983,VALID,23.8973,VALID,7,VALID,0.329241,
2006-11-29, 10:25:00,VALID,918.296,VALID,0,VALID,83.313,VALID,305.74,VALID,24.0046,VALID,326,VALID,0.546875,
2006-11-29, 10:26:00,VALID,918.309,VALID,0,VALID,83.121,VALID,313.704,VALID,24.0753,VALID,321,VALID,0.77846,
2006-11-29, 10:27:00,VALID,918.308,VALID,0,VALID,82.1965,VALID,321.006,VALID,24.0886,VALID,328,VALID,1.05394,
2006-11-29, 10:28:00,VALID,918.296,VALID,0,VALID,83.046,VALID,330.379,VALID,24.0886,VALID,315,VALID,0.897773,
2006-11-29, 10:29:00,VALID,918.277,VALID,0,VALID,82.1012,VALID,347.462,VALID,24.0686,VALID,355,VALID,0.528773,
2006-11-29, 10:30:00,VALID,918.263,VALID,0,VALID,82.3275,VALID,375.548,VALID,24.1173,VALID,303,VALID,0.373561,
2006-11-29, 10:31:00,VALID,918.245,VALID,0,VALID,82.8857,VALID,448.617,VALID,24.2075,VALID,316,VALID,0.269345,
2006-11-29, 10:32:00,VALID,918.236,VALID,0,VALID,83.1388,VALID,753.813,VALID,24.3823,VALID,10,VALID,0.501243,
2006-11-29, 10:33:00,VALID,918.224,VALID,0,VALID,82.0516,VALID,588.522,VALID,24.6006,VALID,58,VALID,1.06174,
2006-11-29, 10:34:00,VALID,918.222,VALID,0,VALID,80.3641,VALID,897.997,VALID,24.7561,VALID,56,VALID,0.71596,
2006-11-29, 10:35:00,VALID,918.21,VALID,0,VALID,77.2601,VALID,529.819,VALID,24.9006,VALID,95,VALID,0.604539,
2006-11-29, 10:36:00,VALID,918.196,VALID,0,VALID,77.058,VALID,491.374,VALID,24.9908,VALID,85,VALID,0.197599,
2006-11-29, 10:37:00,VALID,918.188,VALID,0,VALID,76.4514,VALID,451.809,VALID,25.2047,VALID,334,VALID,0.816592,
2006-11-29, 10:38:00,VALID,918.188,VALID,0,VALID,77.2271,VALID,394.295,VALID,25.2135,VALID,30,VALID,1.50286,
2006-11-29, 10:39:00,VALID,918.172,VALID,0,VALID,76.9461,VALID,368.382,VALID,25.0635,VALID,42,VALID,0.711719,
2006-11-29, 10:40:00,VALID,918.179,VALID,0,VALID,78.2673,VALID,347.988,VALID,25.005,VALID,4,VALID,1.23983,
2006-11-29, 10:41:00,VALID,918.183,VALID,0,VALID,78.2584,VALID,333.979,VALID,24.8816,VALID,26,VALID,1.18598,
2006-11-29, 10:42:00,VALID,918.178,VALID,0,VALID,78.1236,VALID,324.945,VALID,24.7365,VALID,40,VALID,0.725836,
2006-11-29, 10:43:00,VALID,918.172,VALID,0,VALID,79.2642,VALID,319.24,VALID,24.6813,VALID,20,VALID,1.20384,
2006-11-29, 10:44:00,VALID,918.163,VALID,0,VALID,80.1124,VALID,314.791,VALID,24.5811,VALID,30,VALID,1.47496,
2006-11-29, 10:45:00,VALID,918.154,VALID,0,VALID,80.5472,VALID,314.893,VALID,24.4324,VALID,24,VALID,1.67115,
2006-11-29, 10:46:00,VALID,918.132,VALID,0,VALID,80.6604,VALID,318.543,VALID,24.3452,VALID,43,VALID,1.14653,
2006-11-29, 10:47:00,VALID,918.106,VALID,0,VALID,80.4544,VALID,324.809,VALID,24.3097,VALID,37,VALID,1.02053,
2006-11-29, 10:48:00,VALID,918.083,VALID,0,VALID,80.3756,VALID,340.347,VALID,24.3184,VALID,27,VALID,0.95827,
2006-11-29, 10:49:00,VALID,918.07,VALID,0,VALID,78.4873,VALID,338.734,VALID,24.3026,VALID,3,VALID,1.3324,
2006-11-29, 10:50:00,VALID,918.04,VALID,0,VALID,79.6355,VALID,337.969,VALID,24.312,VALID,20,VALID,0.834263,
2006-11-29, 10:51:00,VALID,918.031,VALID,0,VALID,79.9649,VALID,337.647,VALID,24.3743,VALID,17,VALID,0.749132,
2006-11-29, 10:52:00,VALID,918.021,VALID,0,VALID,79.1612,VALID,337.019,VALID,24.4351,VALID,329,VALID,0.597479,
2006-11-29, 10:53:00,VALID,918.022,VALID,0,VALID,80.9084,VALID,345.492,VALID,24.5511,VALID,288,VALID,0.978566,
2006-11-29, 10:54:00,VALID,918.007,VALID,0,VALID,79.3774,VALID,380.523,VALID,24.6063,VALID,316,VALID,1.4481,
2006-11-29, 10:55:00,VALID,918.006,VALID,0,VALID,77.5246,VALID,414.944,VALID,24.5608,VALID,314,VALID,1.82931,
2006-11-29, 10:56:00,VALID,918.01,VALID,0,VALID,77.2538,VALID,414.078,VALID,24.5149,VALID,316,VALID,1.47062,
2006-11-29, 10:57:00,VALID,917.993,VALID,0,VALID,77.5208,VALID,399.882,VALID,24.5161,VALID,323,VALID,1.2024,
2006-11-29, 10:58:00,VALID,917.98,VALID,0,VALID,79.8873,VALID,381.916,VALID,24.5511,VALID,300,VALID,1.42756,
2006-11-29, 10:59:00,VALID,917.972,VALID,0,VALID,79.0201,VALID,357.497,VALID,24.6163,VALID,299,VALID,1.58558,
2006-11-29, 11:00:00,VALID,917.971,VALID,0,VALID,79.4003,VALID,343.369,VALID,24.5805,VALID,286,VALID,1.49183,
2006-11-29, 11:01:00,VALID,917.963,VALID,0,VALID,79.5592,VALID,335.151,VALID,24.6296,VALID,302,VALID,1.4652,
2006-11-29, 11:02:00,VALID,917.945,VALID,0,VALID,77.1889,VALID,330.736,VALID,24.5866,VALID,329,VALID,1.52965,
2006-11-29, 11:03:00,VALID,917.914,VALID,0,VALID,77.7345,VALID,328.222,VALID,24.572,VALID,326,VALID,1.07138,
2006-11-29, 11:04:00,VALID,917.904,VALID,0,VALID,78.3219,VALID,328.562,VALID,24.582,VALID,301,VALID,0.747622,
2006-11-29, 11:05:00,VALID,917.873,VALID,0,VALID,77.5208,VALID,333.198,VALID,24.6525,VALID,306,VALID,0.976207,
2006-11-29, 11:06:00,VALID,917.858,VALID,0,VALID,78.2965,VALID,339.005,VALID,24.7733,VALID,281,VALID,1.26687,
2006-11-29, 11:07:00,VALID,917.839,VALID,0,VALID,79.5821,VALID,340.313,VALID,24.9316,VALID,284,VALID,0.738839,
2006-11-29, 11:08:00,VALID,917.842,VALID,0,VALID,78.4453,VALID,342.707,VALID,25.0794,VALID,320,VALID,0.821766,
2006-11-29, 11:09:00,VALID,917.826,VALID,0,VALID,77.0287,VALID,348.056,VALID,25.1572,VALID,292,VALID,0.201705,